NIMBUS 2 DEB, 42436

Orbit data source: Space-Track

NIMBUS 2 DEB, 42436 is space debris in SSO originally from a launch on Sun, 15 May 1966 UTC launched from the Air Force Western Test Range (AFWTR). Debris objects in space refer to the collection of defunct objects orbiting the Earth. Examples of debris include non-operational satellites, rocket bodies, and fragments generated from explosions, collisions, or faulty payload assembly.

Loading next visibility...
Identifier
42436, 1966-040BP
Orbit
SSO
Country
Flag of USUS
Related business
Manufacturer
Unknown
Mission
Spacecraft
Bus & Motor
Unknown
Mass
Unknown
Launch date (UTC)
1966-05-15 (60 years ago)
Launch vehicle
Unknown
Launch site
Air Force Western Test Range (AFWTR)
Object type
Payload
Rocket body
Debris
Shape & HBR
Unknown shape, 0.1 m
Radar Cross Section
Small (<0.1 m²)

Expand to show TLE details & history
Last TLE update: 2 weeks ago

TLE from 2 weeks ago
0 NIMBUS 2 DEB
1 42436U 66040BP  26149.01081872  .00002060  00000-0  34933-2 0  9996
2 42436 100.3054 358.1307 0043833 223.2169 136.5518 13.46257981537355
Epoch: 2026-05-29T00:15Z
TLE epoch observation values (Epoch: 2026-05-29T00:15:34.737Z)
Latitude
-0.00005°
Longitude
107.68864°
Altitude
1,112.642 km
Speed
7.285 km/s
True Right ascension
23h 52m 31s
True Declination
0° 00' 00"
Sunlit
Object was in daylight at epoch
Visualization orbit readout
Latitude
Unknown
Longitude
Unknown
Altitude
Unknown
Speed
Unknown
Apparent Right ascension
Unknown
Apparent Declination
Unknown
Sunlit
N/A
Visualization observer readout
Local Sidereal Time
06:09:55
Azimuth
Unknown
Elevation
Unknown
Doppler factor
Unknown
Orbital elements
Apogee altitude
1,116.102 km
Perigee altitude
1,050.69 km
Semi-major axis
7,461.533 km
Eccentricity
0.00438
Inclination
100.3054°
RAAN
358.1307°
Arg. of periapsis
223.2169°
True anomaly
136.89585°
Mean anomaly
136.5518°
Eccentric anomaly
136.72396°
Mean motion
3.36745 °/min
Orbital period
106.91 mins
BSTAR
0.0034933
Loading maneuver chart data...
Computing Atmospheric mass density...
Loading historical data...
Loading historical data...
Loading historical data...
Loading historical data...
Loading historical data...
Loading historical data...
Loading historical data...

Documentation

Showing up to 5 results
|